THOR ABLESTAR DEB, 475

Orbit data source: Space-Track

THOR ABLESTAR DEB, 475 is space debris in LEO originally from a launch on Thu, 29 Jun 1961 UTC launched from the Air Force Eastern Test Range (AFETR). Debris objects in space refer to the collection of defunct objects orbiting the Earth. Examples of debris include non-operational satellites, rocket bodies, and fragments generated from explosions, collisions, or faulty payload assembly.

Loading next visibility...
Identifier
475, 1961-015FM
Orbit
LEO
Country
Flag of USUS
Related business
Manufacturer
Unknown
Mission
Spacecraft
Bus & Motor
Unknown
Mass
Unknown
Launch date (UTC)
1961-06-29 (64 years ago)
Launch vehicle
Unknown
Launch site
Air Force Eastern Test Range (AFETR)
Object type
Payload
Rocket body
Debris
Shape & HBR
Unknown shape, 0.1 m
Radar Cross Section
Small (<0.1 m²)

Expand to show TLE details & history
Last TLE update: 14 hours ago

TLE from 14 hours ago
0 THOR ABLESTAR DEB
1   475U 61015FM  25299.35781987  .00003413  00000-0  13967-2 0  9993
2   475  66.2211 274.4320 0151822 250.4087 108.0559 14.22345894254510
Epoch: 2025-10-26T08:35Z
TLE epoch observation values (Epoch: 2025-10-26T08:35:15.636Z)
Latitude
-0.00012°
Longitude
110.64163°
Altitude
854.844 km
Speed
7.407 km/s
True Right ascension
18h 17m 43s
True Declination
0° 00' 00"
Sunlit
Object was in daylight at epoch
Visualization orbit readout
Latitude
Unknown
Longitude
Unknown
Altitude
Unknown
Speed
Unknown
Apparent Right ascension
Unknown
Apparent Declination
Unknown
Sunlit
N/A
Visualization observer readout
Local Sidereal Time
18:05:21
Azimuth
Unknown
Elevation
Unknown
Doppler factor
Unknown
Orbital elements
Apogee altitude
925.087 km
Perigee altitude
706.646 km
Semi-major axis
7,194.003 km
Eccentricity
0.01518
Inclination
66.2211°
RAAN
274.432°
Arg. of periapsis
250.4087°
True anomaly
109.70008°
Mean anomaly
108.0559°
Eccentric anomaly
108.87898°
Mean motion
3.55703 °/min
Orbital period
101.21 mins
BSTAR
0.0013967
Loading maneuver chart data...
Computing Atmospheric mass density...

Documentation

Showing up to 5 results
|